EW2580 Weather Reports


time (UTC)temp
F
wind
direction
speed
knots
gust
knots
rain 1hr
in
rain 24hr
in
rain mn
in
humidity
%
barometer
mb
20260507220009 52 340 2.6 5.2 0.00 0.00 0.00 50 1010.4
20260507214509 52 360 1.7 10.4 0.00 0.00 0.00 50 1010.5
20260507213011 52 5 3.5 7.8 0.00 0.00 0.00 49 1010.4
20260507211508 52 351 4.3 8.7 0.00 0.00 0.00 48 1010.4
20260507210007 53 309 2.6 7.0 0.00 0.00 0.00 47 1010.3
20260507204506 53 325 0.9 4.3 0.00 0.00 0.00 46 1010.4
20260507203012 53 36 2.6 7.8 0.00 0.00 0.00 46 1010.5
20260507201503 53 321 4.3 8.7 0.00 0.00 0.00 46 1010.6
20260507200002 53 338 1.7 10.4 0.00 0.00 0.00 48 1010.5
20260507194503 53 355 2.6 8.7 0.00 0.00 0.00 47 1010.7
20260507193058 53 335 4.3 8.7 0.00 0.00 0.00 47 1010.9
20260507191558 53 303 1.7 8.7 0.00 0.00 0.00 48 1010.9
20260507190057 52 305 2.6 8.7 0.00 0.00 0.00 47 1011.0
20260507184557 53 5 2.6 7.0 0.00 0.00 0.00 47 1010.9
20260507183054 54 225 3.5 9.6 0.00 0.00 0.00 43 1011.0
20260507181552 53 46 3.5 8.7 0.00 0.00 0.00 45 1011.1
20260507180051 53 327 1.7 9.6 0.00 0.00 0.00 49 1011.3
20260507174550 54 26 3.5 10.4 0.00 0.00 0.00 45 1011.4
20260507173046 53 13 5.2 10.4 0.00 0.00 0.00 47 1011.4
20260507171544 53 5 0.9 7.8 0.00 0.00 0.00 47 1011.6
20260507170043 53 250 2.6 11.3 0.00 0.00 0.00 46 1011.7
20260507164541 52 15 2.6 12.2 0.00 0.00 0.00 47 1012.1
20260507163040 52 337 3.5 11.3 0.00 0.00 0.00 53 1012.1
20260507161540 53 254 2.6 12.2 0.00 0.00 0.00 48 1012.2
20260507160038 52 297 3.5 11.3 0.00 0.00 0.00 48 1012.3
20260507154534 51 45 3.5 7.8 0.00 0.00 0.00 50 1012.3
20260507153035 50 336 3.5 10.4 0.00 0.00 0.00 52 1012.6
20260507151532 51 239 11.3 20.9 0.00 0.00 0.00 47 1012.6
20260507150031 51 288 4.3 14.8 0.00 0.00 0.00 50 1012.8
20260507144534 51 309 2.6 12.2 0.00 0.01 0.00 53 1012.8
20260507143031 50 236 3.5 12.2 0.00 0.01 0.00 54 1013.1
20260507141525 50 21 3.5 7.0 0.00 0.01 0.00 53 1013.2
20260507140028 50 261 1.7 7.8 0.00 0.01 0.00 58 1013.3
20260507134520 48 193 2.6 7.8 0.00 0.04 0.00 61 1013.4
20260507133015 46 32 2.6 6.1 0.00 0.04 0.00 61 1013.4
20260507131511 43 217 0.9 3.5 0.00 0.04 0.00 83 1013.6
20260507130006 41 135 0.0 4.3 0.00 0.04 0.00 84 1013.5
20260507124512 39 123 0.0 2.6 0.00 0.07 0.00 86 1013.7
20260507123004 38 71 0.9 3.5 0.00 0.07 0.00 88 1013.8
20260507121504 36 122 0.9 2.6 0.00 0.07 0.00 92 1013.9
20260507120004 34 103 0.9 2.6 0.00 0.07 0.00 94 1013.9
20260507114504 32 299 0.0 0.9 0.00 0.15 0.00 94 1014.0
20260507113001 30 299 0.9 1.7 0.00 0.15 0.00 93 1014.0
20260507111600 29 299 0.0 0.0 0.00 0.15 0.00 92 1013.8
20260507110100 29 299 0.0 0.0 0.00 0.15 0.00 91 1013.6
20260507104558 29 299 0.0 0.0 0.00 0.27 0.00 91 1013.4
20260507103056 29 299 0.0 0.0 0.00 0.27 0.00 90 1013.3
20260507101604 29 299 0.0 0.0 0.00 0.27 0.00 90 1013.2
20260507100049 30 299 0.0 0.0 0.00 0.27 0.00 90 1013.3
20260507094555 30 299 0.0 0.0 0.00 0.39 0.00 90 1013.3
20260507093044 30 299 0.0 0.0 0.00 0.39 0.00 90 1013.3
20260507091555 30 299 0.0 0.0 0.00 0.39 0.00 89 1013.4
20260507084539 31 299 0.0 0.0 0.00 0.46 0.00 89 1013.4
20260507083041 32 299 0.0 0.0 0.00 0.46 0.00 88 1013.5
20260507081548 32 299 0.0 0.0 0.00 0.46 0.00 87 1013.6
20260507080031 33 299 0.0 0.0 0.00 0.46 0.00 87 1013.5
20260507074532 34 299 0.0 0.9 0.00 0.52 0.00 87 1013.5
20260507073026 34 299 0.9 1.7 0.00 0.52 0.00 87 1013.4
20260507071523 35 299 0.0 1.7 0.00 0.52 0.00 85 1013.4
20260507070020 36 299 0.0 1.7 0.00 0.52 0.00 85 1013.3
20260507064516 37 299 0.0 0.0 0.00 0.57 0.00 85 1013.3
20260507063013 38 299 0.0 0.9 0.00 0.57 0.00 85 1013.3
20260507061527 39 299 0.0 0.0 0.00 0.57 0.00 85 1013.3
20260507060008 39 299 0.0 1.7 0.00 0.57 0.00 85 1013.3
20260507054508 39 299 0.0 0.0 0.00 0.57 0.00 84 1013.4
20260507053006 40 299 0.0 1.7 0.00 0.57 0.00 84 1013.5
20260507051504 40 299 0.0 1.7 0.00 0.57 0.00 83 1013.5
20260507050006 40 346 0.0 1.7 0.00 0.57 0.00 85 1013.5
20260507044501 40 346 0.9 2.6 0.00 0.57 0.00 85 1013.6
20260507043100 40 323 0.0 2.6 0.00 0.57 0.00 84 1013.3
20260507041557 40 334 0.9 1.7 0.00 0.57 0.00 85 1013.5
20260507040055 40 223 0.9 3.5 0.00 0.57 0.00 85 1013.4
20260507034553 40 53 0.0 0.9 0.00 0.59 0.57 86 1013.3
20260507033050 41 46 0.0 0.0 0.00 0.59 0.57 85 1013.4
20260507031548 41 329 0.0 2.6 0.00 0.59 0.57 85 1013.1
20260507030048 41 350 0.9 3.5 0.00 0.59 0.57 85 1012.9
20260507024544 42 360 0.0 1.7 0.00 0.59 0.57 87 1012.8
20260507023043 42 234 0.0 0.0 0.00 0.59 0.57 85 1012.7
20260507021541 43 234 0.0 0.0 0.00 0.59 0.57 85 1012.8
20260507020038 43 234 0.0 0.9 0.00 0.59 0.57 84 1012.6
20260507014551 44 234 0.0 1.7 0.00 0.59 0.57 83 1013.0
20260507013036 44 283 0.0 0.0 0.00 0.59 0.57 81 1012.7
20260507011533 45 283 0.0 1.7 0.00 0.59 0.57 79 1013.1
20260507010031 45 300 0.0 1.7 0.00 0.59 0.57 76 1012.9
20260507004529 46 300 0.0 4.3 0.00 0.59 0.57 73 1013.0
20260507003027 46 315 0.0 2.6 0.00 0.59 0.57 73 1012.5
20260507001526 46 9 1.7 4.3 0.00 0.59 0.57 72 1012.8
20260507000027 47 21 0.9 5.2 0.00 0.59 0.57 71 1012.2
20260506234521 47 16 0.0 3.5 0.00 0.62 0.57 70 1011.9
20260506233020 47 311 2.6 7.8 0.00 0.62 0.57 66 1011.5
20260506231518 48 283 0.9 3.5 0.00 0.62 0.57 68 1011.3
20260506230017 48 338 0.9 4.3 0.00 0.62 0.57 67 1011.1
20260506224516 49 23 3.5 8.7 0.00 0.62 0.57 67 1010.9
20260506223013 49 360 0.0 2.6 0.00 0.62 0.57 78 1010.8
20260506221510 49 334 0.0 5.2 0.00 0.62 0.57 78 1010.6